Weather History for Alexandria, MN

Change the Weather History Date:

Friday, May 29, 2009

  Actual Average Record
Temperature  
Mean Temperature 62 °F -  
Max Temperature 77 °F 71 °F 87 °F (1986)
Min Temperature 48 °F 51 °F 38 °F (1952)
Degree Days  
Heating Degree Days 4    
Growing Degree Days 12 (Base 50)    
Moisture  
Dew Point 42 °F    
Average Humidity 52    
Maximum Humidity 77    
Minimum Humidity 25    
Precipitation  
Precipitation 0.01 in - - ()
Sea Level Pressure  
Sea Level Pressure 29.95 in    
Wind  
Wind Speed 9 mph (WNW)    
Max Wind Speed 30 mph    
Max Gust Speed 41 mph    
Visibility 10 miles    
Events Rain , Thunderstorm    
Averages and records for this station are not official NWS values.
T = Trace of Precipitation, MM = Missing Value Source: NWS Daily Summary

Daily Weather History Graph

Daily Weather History Graph

Search for Another Location

Airport:

Trip Planner

Search our weather history database for the weather conditions in past years. The results will help you decide how hot, cold, wet, or windy it might be!

Date:

Astronomy

May. 29, 2009 Rise Set
Actual Time 5:36 AM CDT 9:02 PM CDT
Civil Twilight 4:59 AM CDT 9:39 PM CDT
Nautical Twilight 4:11 AM CDT 10:27 PM CDT
Astronomical Twilight 3:09 AM CDT 11:30 PM CDT
Moon 11:22 AM CDT (5/29) 1:03 AM CDT (5/29)
Length of Visible Light 16h 39m
Length of Day
15h 25m
Waxing Crescent, 34% of the Moon is Illuminated
May 29
Waxing Crescent
May 30
First Quarter
Jun 7
Full
Jun 15
Last Quarter
Jun 22
New

Hourly Weather History & Observations

Time (CDT) Temp. Dew Point Humidity Pressure Visibility Wind Dir Wind Speed Gust Speed Precip Events Conditions
12:53 AM 57.0 °F 46.0 °F 67% 29.97 in 10.0 mi North 11.5 mph - N/A   Mostly Cloudy
1:53 AM 54.0 °F 45.0 °F 72% 29.98 in 10.0 mi North 8.1 mph - N/A   Scattered Clouds
2:53 AM 53.1 °F 42.1 °F 66% 29.99 in 10.0 mi North 6.9 mph - N/A   Clear
3:53 AM 50.0 °F 43.0 °F 77% 30.00 in 10.0 mi North 3.5 mph - N/A   Clear
4:53 AM 48.9 °F 41.0 °F 74% 30.01 in 10.0 mi North 5.8 mph - N/A   Clear
5:53 AM 48.0 °F 39.9 °F 74% 30.02 in 10.0 mi Calm Calm - N/A   Clear
6:53 AM 53.1 °F 41.0 °F 64% 30.03 in 10.0 mi NE 8.1 mph - N/A   Clear
7:53 AM 57.0 °F 37.9 °F 49% 30.04 in 10.0 mi NNE 5.8 mph - N/A   Clear
8:53 AM 59.0 °F 36.0 °F 42% 30.04 in 10.0 mi West 3.5 mph - N/A   Clear
9:53 AM 61.0 °F 39.9 °F 46% 30.03 in 10.0 mi SSW 5.8 mph - N/A   Partly Cloudy
10:53 AM 66.0 °F 37.0 °F 34% 30.02 in 10.0 mi WSW 8.1 mph - N/A   Clear
11:53 AM 68.0 °F 36.0 °F 31% 30.02 in 10.0 mi SW 9.2 mph - N/A   Clear
12:53 PM 71.1 °F 35.1 °F 27% 29.99 in 10.0 mi WSW 11.5 mph 19.6 mph N/A   Clear
1:53 PM 75.0 °F 37.0 °F 25% 29.97 in 10.0 mi WNW 12.7 mph 21.9 mph N/A   Clear
2:53 PM 75.0 °F 37.0 °F 25% 29.94 in 10.0 mi West 16.1 mph 23.0 mph N/A   Clear
3:44 PM 71.6 °F 37.4 °F 29% 29.91 in 10.0 mi West 16.1 mph - N/A Thunderstorm Mostly Cloudy
3:53 PM 71.1 °F 37.9 °F 30% 29.93 in 10.0 mi WNW 13.8 mph 18.4 mph N/A   Overcast
4:08 PM 64.4 °F 44.6 °F 49% 29.95 in 10.0 mi NNW 29.9 mph 41.4 mph 0.00 in Rain , Thunderstorm Light Rain
4:29 PM 60.8 °F 51.8 °F 72% 29.93 in 8.0 mi NNE 17.3 mph 25.3 mph 0.00 in Rain Light Rain
4:53 PM 62.1 °F 48.0 °F 60% 29.94 in 10.0 mi NNE 10.4 mph - 0.01 in   Partly Cloudy
5:53 PM 64.9 °F 44.1 °F 47% 29.91 in 10.0 mi Calm Calm - N/A   Partly Cloudy
6:53 PM 64.0 °F 44.1 °F 48% 29.89 in 10.0 mi SW 3.5 mph - N/A   Mostly Cloudy
7:53 PM 64.9 °F 44.1 °F 47% 29.90 in 10.0 mi NNW 11.5 mph 20.7 mph N/A   Mostly Cloudy
8:53 PM 59.0 °F 48.9 °F 69% 29.87 in 10.0 mi Calm Calm - N/A   Scattered Clouds
9:53 PM 59.0 °F 48.9 °F 69% 29.84 in 10.0 mi SSW 6.9 mph - N/A   Mostly Cloudy
10:53 PM 62.1 °F 46.9 °F 58% 29.84 in 10.0 mi WSW 12.7 mph - 0.00 in   Overcast
11:00 PM 62.6 °F 48.2 °F 59% 29.84 in 10.0 mi WSW 13.8 mph - N/A   Overcast
11:53 PM 62.1 °F 46.9 °F 58% 29.81 in 10.0 mi West 8.1 mph - N/A   Overcast